Погода в Ланкаране

Погода в Ланкаране : погода сейчас, прогноз погоды и архив. Всё, что Вы хотите узнать о погоде в Ланкаране!

Поиск расширенной информации на нашем сайте:

Другие новости

Новости СМИ2

Главная страница сайта

Новости сайта

03.07.2017

Напоминаем, что на нашем специализированном сайте Метеоцентр.Азия вы можете получить высокодетализированные автоматические прогнозы погоды по пунктам России, СНГ и мира в авиационном формате (включающие направление и скорость ветра, видимость, явления погоды, количество и форму облачности, нижнюю и верхнюю границу облачности).

Рекомендуем: Brady хочет познакомиться - brady tls2200.

Погода в Ланкаране - сегодня

Время (UTC), дата Ветер
(°,м/с) 
Видим.   Явления Облачность Т
(°С)
Тd
(°С)
f(%) Тe
(°С)
Pmin
(гПа)
dP
(гПа)
Po
(мм)
O2
(г/м3)
Тmin Tmax R s Состояние
почвы
12 13.08.18 050 (СВ) 10 км    9/9 600 м 
[Sc]
+28.3 +17.6 52 +41  1010.3  -1  759  273           
15 13.08.18 140 (ЮВ) 10 км    10/10 600 м 
[Sc]
+26.1 +19.1 65 +42  1010.8  0.5  759  275           
21 13.08.18 240 (ЮЗ) 4000 м  слаб. дождь  10/10 600 м 
+21.1 +19.7 92 +39  1012.9  -0.2  761  280           
00 14.08.18 340 (С) 4000 м  {дождь}  10/10 600 м 
[Sc]
+21.4 +19.7 90 +39  1012.9  761  280           
03 14.08.18 250 (З) 10 км    10/10 600 м 
[Sc]
+21.9 +18.9 83 +38  1013.8  0.9  761  280           
06 14.08.18 340 (С) 20000 м    10/10 600 м 
[Sc]
+24.8 +20.4 77 +44  1014.8  762  277  +22.7       
09 14.08.18 070 (В) 20000 м    8/0 средняя 
[Ac lent]
+26.1 +20 69 +44  1014.1  -0.7  762  275           
12 14.08.18 230 (ЮЗ) 20000 м    8/8 600 м средняя 
[Sc|Ac lent]
+25.7 +19.4 68 +42  1013.6  -0.5  761  276           
15 14.08.18 250 (З) 10 км    10/10 600 м 
[Sc]
+25 +19.4 71 +42  1013.8  0.2  761  277           
18 14.08.18 110 (В) 4000 м    10/10 600 м 
[Sc]
+23 +17.9 73 +37  1014.7  0.9  762  279    +26.8       
21 14.08.18 230 (ЮЗ) 4000 м    8/0 средняя 
[Ac lent]
+22.3 +16.5 70 +33  1014.2  -0.5  762  280           
00 15.08.18 230 (ЮЗ) 4000 м    6/0 средняя 
[Ac lent]
+20.3 +15.6 74 +30  1013.9  -0.3  762  282           
03 15.08.18 тихо ()   20000 м    4/0 средняя 
[Ac lent]
+21.4 +15.6 70 +31  1014.5  0.3  751  277           
09 15.08.18 360 (С) 20000 м    10/10 600 м 
[Sc]
+29.4 +16.7 46 +41  1014.3  -0.6  762  274           
12 15.08.18 тихо ()   20000 м    10/10 600 м 
[Sc]
+28.5 +14.7 43 +36  1013.3  -1  761  275           
15 15.08.18 090 (В) 20000 м    8/8 600 м средняя 
[Sc|Ac lent]
+26.8 +18.4 60 +41  1014.4  1.1  762  275           
21 15.08.18 230 (ЮЗ) 4000 м    8/8 600 м средняя 
[Sc|Ac lent]
+22.5 +17.7 74 +36  1015.5  -0.3  763  280           
00 16.08.18 200 (Ю) 4000 м    10/10 600 м 
[Sc]
+21.2 +16.4 74 +32  1014.8  -0.2  762  281           
03 16.08.18 230 (ЮЗ) 20000 м    8/8 600 м средняя 
[Sc|Ac lent]
+21.4 +17.9 80 +35  1015.1  0.3  762  281           
06 16.08.18 290 (З) 20000 м    6/6 600 м средняя 
[Sc|Ac lent]
+28.4 +19.3 58 +45  1015.5  0.4  763  274  +20         
09 16.08.18 140 (ЮВ) 20000 м    ясно 
+28.3 +17.2 51 +41  1014.1  -1.4  762  274           
12 16.08.18 180 (Ю) 20000 м    ясно 
+28.8 +18.4 53 +44  1012.3  -1.8  760  273           
15 16.08.18 180 (Ю) 20000 м    ясно 
+26.8 +19.4 64 +44  1012  -0.3  760  274           
18 16.08.18 160 (Ю) 4000 м    ясно 
+23.4 +19.8 80 +41  1012.7  0.7  761  278    +28.9       
21 16.08.18 270 (З) 4000 м    ясно 
+20.9 +18.5 86 +36  1011.5  -1.2  760  280           
Время (UTC), дата Ветер
(°,м/с) 
Видим.   Явления Облачность Т
(°С)
Тd
(°С)
f(%) Тe
(°С)
Pmin
(гПа)
dP
(гПа)
Po
(мм)
O2
(г/м3)
Тmin Tmax R s Состояние
почвы

Для получения пояснительной информации подведите курсор к названию столбца.

ПОГОДА в Ланкаране - архив

Всё, что Вы хотите узнать о погоде в Ланкаране - удобно и подробно!

Выберите нужную дату (начиная с 1 января 2015* года) и нажмите кнопку "Найти".
Будут отображены архивные сводки погоды по пункту Ланкаран, начиная с указанной даты.


Отображать данные в формате CSV (для использования в таблицах Excel)


Внимание! Наш архив погоды предназначен исключительно для личного некоммерческого использования в познавательных целях. Если Вам необходимы официальные справки о состоянии погоды (для производственных, юридических, коммерческих и т.п. целей), обращайтесь в органы Росгидромета.

*Примечание: данная дата относится к архиву по метеостанциям СССР (Россия, СНГ, Балтия).
Архив по метеостанциям Зарубежной Европы и Азии (кроме Китая) хранится 10 дней, по другим регионам земного шара (Китай, Африка, Америка, Австралия, Океания) - 1 день.

Ланкаран - район местоположения метеостанции


Название, широта, долгота, высота метеостанции:
Ланкаран (аэропорт) 38.7°ш. 48.8°д. -12 м над ур. моря [Азербайджан]

Дополнительная информация

В oтличие oт бoльшинства пoгoдных сайтoв мы публикуем пoдрoбную метеoинфoрмацию в детальнoм прoфессиoнальнoм фoрмате.

Характеристики температуры и влажнoсти вoздуха измеряются на высoте 2 м в тени вдали oт зданий и деревьев.
Скoрoсть ветра измеряется на высoте 10 м (на урoвне рoста челoвека скoрoсть ветра ниже в 1.5-2 раза). Если метеoстанция нахoдится в гoрoде или в лесу, тo скoрoсть ветра занижена на 2-4 м/с пo сравнению с oткрытым местoм. Скoрoсть ветра над акватoриями крупных рек и oзёр, а также на вершинах хoлмoв на 2-5 м/с выше, чем в oбычных услoвиях.
Атмoсфернoе давление в разных тoчках местнoсти мoжет значительнo oтличаться oт давления на метеoстанции, в зависимoсти oт услoвий рельефа (при пoдъёме на 10 м давление пoнижается примернo на 1 мм рт.ст.).